EN

Hourly Weather Abbasanta

Today, 27 November, Friday

Time Temperature Precipitation Wind Pressure Humidity
00:00 +10°C° 0 mm 3 mps 733 mmHg 88%
01:00 +10°C° 0 mm 3 mps 733 mmHg 88%
02:00 +10°C° 0 mm 3 mps 733 mmHg 89%
03:00 +10°C° 0 mm 3 mps 733 mmHg 89%
04:00 +10°C° 0 mm 3 mps 732 mmHg 90%
05:00 +10°C° 0 mm 3 mps 732 mmHg 89%
06:00 +10°C° 0 mm 3 mps 732 mmHg 89%
07:00 +10°C° 0 mm 3 mps 732 mmHg 88%
08:00 +11°C° 0 mm 3 mps 732 mmHg 82%
09:00 +13°C° 0 mm 3 mps 732 mmHg 76%
10:00 +16°C° 0 mm 3 mps 732 mmHg 69%
11:00 +17°C° 0 mm 4 mps 732 mmHg 65%
12:00 +18°C° 0 mm 4 mps 732 mmHg 60%
13:00 +19°C° 0 mm 4 mps 732 mmHg 55%
14:00 +18°C° 0 mm 4 mps 731 mmHg 59%
15:00 +17°C° 0 mm 4 mps 731 mmHg 62%
16:00 +17°C° 0 mm 4 mps 731 mmHg 65%
17:00 +15°C° 0 mm 4 mps 731 mmHg 70%
18:00 +14°C° 0 mm 4 mps 730 mmHg 75%
19:00 +13°C° 0 mm 4 mps 730 mmHg 80%
20:00 +13°C° 0 mm 4 mps 730 mmHg 81%
21:00 +13°C° 0 mm 4 mps 730 mmHg 82%
22:00 +13°C° 0 mm 4 mps 730 mmHg 82%
23:00 +13°C° 0.4 mm 4 mps 730 mmHg 84%

Tomorrow, 28 November, Saturday

Time Temperature Precipitation Wind Pressure Humidity
00:00 +13°C° 0.4 mm 4 mps 729 mmHg 85%
01:00 +13°C° 0.4 mm 4 mps 729 mmHg 87%
02:00 +13°C° 0.6 mm 4 mps 729 mmHg 86%
03:00 +13°C° 0.6 mm 4 mps 728 mmHg 85%
04:00 +13°C° 0.6 mm 4 mps 728 mmHg 85%
05:00 +13°C° 0.6 mm 4 mps 727 mmHg 85%
06:00 +13°C° 0.6 mm 4 mps 727 mmHg 86%
07:00 +13°C° 0.6 mm 4 mps 727 mmHg 86%
08:00 +13°C° 1.7 mm 5 mps 726 mmHg 86%
09:00 +13°C° 1.7 mm 6 mps 726 mmHg 86%
10:00 +12°C° 1.7 mm 7 mps 726 mmHg 85%
11:00 +12°C° 2.5 mm 7 mps 725 mmHg 85%
12:00 +12°C° 2.5 mm 7 mps 724 mmHg 85%
13:00 +12°C° 2.5 mm 7 mps 723 mmHg 85%
14:00 +13°C° 4 mm 6 mps 723 mmHg 87%
15:00 +12°C° 4 mm 5 mps 722 mmHg 89%
16:00 +12°C° 4 mm 4 mps 722 mmHg 90%
17:00 +11°C° 0.7 mm 4 mps 722 mmHg 90%
18:00 +11°C° 0.7 mm 4 mps 721 mmHg 89%
19:00 +11°C° 0.7 mm 4 mps 721 mmHg 89%
20:00 +11°C° 0 mm 4 mps 722 mmHg 89%
21:00 +11°C° 0 mm 4 mps 722 mmHg 89%
22:00 +11°C° 0 mm 4 mps 722 mmHg 89%
23:00 +11°C° 0 mm 4 mps 722 mmHg 88%

Day after tomorrow, 29 November, Sunday

Time Temperature Precipitation Wind Pressure Humidity
00:00 +10°C° 0 mm 3 mps 722 mmHg 88%
01:00 +10°C° 0 mm 3 mps 722 mmHg 88%
02:00 +10°C° 0 mm 3 mps 722 mmHg 88%
03:00 +10°C° 0 mm 3 mps 723 mmHg 87%
04:00 +10°C° 0 mm 3 mps 723 mmHg 87%
05:00 +10°C° 0 mm 3 mps 723 mmHg 88%
06:00 +10°C° 0 mm 3 mps 724 mmHg 88%
07:00 +10°C° 0 mm 3 mps 724 mmHg 88%
08:00 +11°C° 0 mm 3 mps 725 mmHg 85%
09:00 +12°C° 0 mm 3 mps 725 mmHg 81%
10:00 +13°C° 0 mm 4 mps 726 mmHg 78%
11:00 +13°C° 0 mm 4 mps 727 mmHg 75%
12:00 +14°C° 0 mm 4 mps 727 mmHg 72%
13:00 +15°C° 0 mm 4 mps 728 mmHg 69%
14:00 +14°C° 0 mm 4 mps 728 mmHg 70%
15:00 +14°C° 0 mm 3 mps 728 mmHg 71%
16:00 +14°C° 0 mm 3 mps 728 mmHg 73%
17:00 +12°C° 0 mm 3 mps 728 mmHg 78%
18:00 +12°C° 0 mm 2 mps 729 mmHg 83%
19:00 +9°C° 0 mm 2 mps 729 mmHg 87%
20:00 +9°C° 0 mm 2 mps 730 mmHg 88%
21:00 +9°C° 0 mm 2 mps 730 mmHg 88%
22:00 +9°C° 0 mm 2 mps 730 mmHg 88%
23:00 +9°C° 0 mm 1 mps 731 mmHg 88%

30 November, Monday

Time Temperature Precipitation Wind Pressure Humidity
00:00 +9°C° 0 mm 1 mps 731 mmHg 88%
01:00 +9°C° 0 mm 1 mps 731 mmHg 88%
02:00 +9°C° 0 mm 1 mps 732 mmHg 88%
03:00 +9°C° 0 mm 1 mps 732 mmHg 88%
04:00 +9°C° 0 mm 1 mps 732 mmHg 88%
05:00 +9°C° 0 mm 1 mps 732 mmHg 88%
06:00 +9°C° 0 mm 1 mps 733 mmHg 88%
07:00 +9°C° 0 mm 1 mps 733 mmHg 87%
08:00 +11°C° 0 mm 1 mps 733 mmHg 82%
09:00 +12°C° 0 mm 1 mps 734 mmHg 76%
10:00 +13°C° 0 mm 0 mps 735 mmHg 71%
11:00 +15°C° 0 mm 1 mps 735 mmHg 67%
12:00 +16°C° 0 mm 1 mps 735 mmHg 64%
13:00 +18°C° 0 mm 1 mps 735 mmHg 60%
14:00 +16°C° 0 mm 1 mps 735 mmHg 66%
15:00 +15°C° 0 mm 1 mps 735 mmHg 71%
16:00 +15°C° 0 mm 2 mps 735 mmHg 76%
17:00 +14°C° 0 mm 1 mps 735 mmHg 81%
18:00 +12°C° 0 mm 1 mps 735 mmHg 87%
19:00 +11°C° 0 mm 1 mps 736 mmHg 92%
20:00 +11°C° 0 mm 1 mps 736 mmHg 92%
21:00 +10°C° 0 mm 1 mps 736 mmHg 92%
22:00 +10°C° 0 mm 1 mps 736 mmHg 93%
23:00 +10°C° 0 mm 1 mps 736 mmHg 93%

1 December, Tuesday

Time Temperature Precipitation Wind Pressure Humidity
00:00 +10°C° 0 mm 1 mps 736 mmHg 93%
01:00 +9°C° 0 mm 1 mps 736 mmHg 93%
02:00 +9°C° 0 mm 1 mps 736 mmHg 93%
03:00 +9°C° 0 mm 1 mps 736 mmHg 93%
04:00 +9°C° 0 mm 1 mps 736 mmHg 93%
05:00 +9°C° 0 mm 1 mps 736 mmHg 92%
06:00 +8°C° 0 mm 1 mps 736 mmHg 92%
07:00 +8°C° 0 mm 1 mps 736 mmHg 92%
08:00 +10°C° 0 mm 1 mps 736 mmHg 87%
09:00 +11°C° 0 mm 1 mps 737 mmHg 81%
10:00 +13°C° 0 mm 1 mps 737 mmHg 76%
11:00 +14°C° 0 mm 1 mps 737 mmHg 70%
12:00 +15°C° 0 mm 1 mps 737 mmHg 63%
13:00 +16°C° 0 mm 1 mps 737 mmHg 57%
14:00 +15°C° 0 mm 1 mps 736 mmHg 61%
15:00 +14°C° 0 mm 1 mps 736 mmHg 65%
16:00 +14°C° 0 mm 1 mps 736 mmHg 68%
17:00 +12°C° 0 mm 1 mps 736 mmHg 75%
18:00 +11°C° 0 mm 1 mps 736 mmHg 81%
19:00 +8°C° 0 mm 0 mps 736 mmHg 87%
20:00 +9°C° 0 mm 1 mps 736 mmHg 88%
21:00 +9°C° 0 mm 1 mps 736 mmHg 88%
22:00 +8°C° 0 mm 1 mps 736 mmHg 89%
23:00 +8°C° 0 mm 1 mps 736 mmHg 89%

2 December, Wednesday

Time Temperature Precipitation Wind Pressure Humidity
00:00 +8°C° 0 mm 1 mps 736 mmHg 89%
01:00 +8°C° 0 mm 1 mps 735 mmHg 89%
02:00 +7°C° 0 mm 1 mps 735 mmHg 88%
03:00 +7°C° 0 mm 1 mps 735 mmHg 88%
04:00 +7°C° 0 mm 1 mps 735 mmHg 87%
05:00 +7°C° 0 mm 1 mps 734 mmHg 87%
06:00 +7°C° 0 mm 1 mps 734 mmHg 86%
07:00 +7°C° 0 mm 1 mps 734 mmHg 86%
08:00 +8°C° 0 mm 1 mps 734 mmHg 80%
09:00 +10°C° 0 mm 1 mps 734 mmHg 74%
10:00 +11°C° 0 mm 0 mps 735 mmHg 68%
11:00 +12°C° 0 mm 0 mps 734 mmHg 63%
12:00 +13°C° 0 mm 0 mps 734 mmHg 59%
13:00 +14°C° 0 mm 0 mps 734 mmHg 55%
14:00 +14°C° 0 mm 1 mps 733 mmHg 59%
15:00 +14°C° 0 mm 1 mps 733 mmHg 63%
16:00 +13°C° 0 mm 1 mps 733 mmHg 67%
17:00 +12°C° 0 mm 1 mps 733 mmHg 73%
18:00 +10°C° 0 mm 1 mps 732 mmHg 79%
19:00 +9°C° 0 mm 1 mps 732 mmHg 86%
20:00 +8°C° 0 mm 1 mps 732 mmHg 87%
21:00 +8°C° 0 mm 1 mps 732 mmHg 87%
22:00 +8°C° 0 mm 1 mps 732 mmHg 88%
23:00 +7°C° 0 mm 2 mps 732 mmHg 88%
Show more

We Need Your Consent

Meteoprog and our Service Providers may store and access personal data such as cookies, device identifiers or other similar technologies on your device and process such data to personalise content and ads, as well as provide social media features and to analyse the traffic.

  • Store and/or access information on your device

    Cookies, device identifiers or other information can be stored or accessed on your device for the purposes indicated above.

  • Personalised ads and content, ad and content measurement, audience insights, and products development

    Ads and content can be personalised based on a profile. More data can be added to better personalise ads and content. Ad and content performance can be measured. Insights about the audience who saw the ads and content can be derived. Such data can be used to develop or improve user’s experience, systems and software.

By clicking ‘I Agree’ you will allow the use of indicated cookies, device identifiers, web beacons or other similar technologies. Your settings can be changed in the browser on your device.

For certain purposes, legitimate interests may be relied on, rather than consent. You can read more about this in our Privacy and Cookie Policy.